Flag for France Weather past 2 weeks in Gustavia, Saint Barthélemy, France

Now
82 °F

Passing clouds.


Feels Like: 89 °F
Forecast: 82 / 84 °F
Wind: 6 mph from Southeast

Location: Juliana Airport - Saint Maarten

Current Time: Aug 30, 2014 at 3:11:55 AM

Latest Report: Aug 30, 2014 at 2:00 AM


Visibility: N/A

Pressure: 30.01 "Hg

Humidity: 79%

Dew point: 75 °F

Location of GustaviaLocation

Historic Weather in Gustavia — Graph

°F

Gustavia temperature yesterday

Maximum temperature yesterday: 86 °F (at 12:00 PM)
Minimum temperature yesterday: 77 °F (at 5:00 AM)
Average temperature yesterday: 82 °F

Past Weeks' High & Low Weather Summary

 TemperatureHumidityPressure
High90 °F (Aug 18, 2:00 PM)89% (Aug 17, 1:00 AM)30.23 "Hg (Aug 17, 1:00 AM)
Low77 °F (Aug 29, 5:00 AM)52% (Aug 18, 2:00 PM)29.83 "Hg (Aug 22, 2:00 AM)
Average84 °F75%29.98 "Hg
* Reported Aug 15 1:00 AM — Aug 30 1:00 AM, Gustavia, Weather by CustomWeather, © 2014

Note: Actual official high and low records may vary slightly from our data, if they occured in-between our weather recording intervals... More about our weather records

Advertising

Gustavia weather history for previous 24 hours

 ConditionsComfort  
Time TempWeatherWind HumidityBarometerVisibility
1:00 AM
Aug 30
82 °FPassing clouds.8 mph79%30.04 "HgN/A
12:00 AM82 °FPassing clouds.8 mph79%30.04 "HgN/A
10:00 PM
Aug 29
81 °FPassing clouds.10 mph84%30.07 "HgN/A
9:00 PM82 °FPassing clouds.10 mph74%30.04 "HgN/A
8:00 PM82 °FPassing clouds.8 mph74%30.01 "HgN/A
7:00 PM84 °FPassing clouds.10 mph74%30.01 "HgN/A
6:00 PM84 °FScattered clouds.12 mph70%30.01 "HgN/A
5:00 PM86 °FScattered clouds.9 mph66%29.98 "HgN/A
3:00 PM86 °FScattered clouds.8 mph66%29.98 "HgN/A
2:00 PM86 °FScattered clouds.9 mph66%30.01 "HgN/A
1:00 PM86 °FPassing clouds.10 mph70%30.01 "HgN/A
12:00 PM86 °FPassing clouds.12 mph62%30.04 "HgN/A
11:00 AM84 °FPassing clouds.10 mph74%30.04 "HgN/A
10:00 AM84 °FPassing clouds.92 mph70%30.07 "HgN/A
9:00 AM82 °FPassing clouds.12 mph79%30.04 "HgN/A
8:00 AM81 °FScattered clouds.10 mph79%30.04 "HgN/A
7:00 AM77 °FLight rain. Scattered clouds.6 mph89%30.01 "HgN/A
6:00 AM77 °FScattered clouds.1 mph89%30.01 "HgN/A
5:00 AM77 °FPassing clouds.5 mph89%30.01 "HgN/A
4:00 AM79 °FSprinkles. Passing clouds.3 mph84%30.01 "HgN/A
3:00 AM79 °FSprinkles. Partly cloudy.9 mph79%29.98 "Hg5 mi
Weather by CustomWeather, © 2014

See weather overviewHow to use our weather pages